Location: Byszew
(52.1813°N, 19.2693°E)
Time: 21:02:41
(UTC+00:00)

JY1SAT - Visible Passes

Search period start: 28 June 2022 00:00
Search period end: 08 July 2022 00:00
Orbit: 566 x 585 km, 97.6° (Epoch: 28 June)

Date Brightness Start Highest point End Pass type
(mag) Time Alt. Az. Time Alt. Az. Time Alt. Az.
28 Jun ? 20:05:00 10° S 20:09:09 78° WSW 20:13:20 10° NNW visible
29 Jun ? 20:08:38 10° S 20:12:46 72° WSW 20:16:57 10° NNW visible
30 Jun ? 20:12:16 10° S 20:16:24 66° WSW 20:20:33 10° NNW visible
01 Jul ? 20:15:56 10° S 20:20:02 60° W 20:24:10 10° NNW visible
02 Jul ? 20:19:35 10° S 20:23:39 56° W 20:27:46 10° NNW visible
03 Jul ? 20:23:15 10° S 20:27:17 51° W 20:31:22 10° NNW visible
04 Jul ? 20:26:54 10° S 20:30:55 47° W 20:34:57 10° NNW visible
05 Jul ? 20:30:35 10° S 20:34:33 43° W 20:38:32 10° NNW visible
06 Jul ? 20:34:16 10° SSW 20:38:10 40° W 20:42:06 10° NNW visible
07 Jul ? 20:37:57 10° SSW 20:41:48 37° W 20:45:41 10° NNW visible
